TimeCDT,TemperatureF,Dew PointF,Humidity,Sea Level PressureIn,VisibilityMPH,Wind Direction,Wind SpeedMPH,Gust SpeedMPH,PrecipitationIn,Events,Conditions,WindDirDegrees,DateUTC
12:53 AM,57.0,50.0,77,29.81,10.0,South,9.2,-,N/A,,Clear,170,2013-04-29 05:53:00
1:53 AM,55.0,48.9,80,29.80,10.0,SSE,5.8,-,N/A,,Clear,160,2013-04-29 06:53:00
2:53 AM,55.0,50.0,83,29.78,10.0,SSE,8.1,-,N/A,,Clear,160,2013-04-29 07:53:00
3:53 AM,54.0,48.9,83,29.77,10.0,South,9.2,-,N/A,,Clear,170,2013-04-29 08:53:00
4:53 AM,54.0,48.9,83,29.77,10.0,South,9.2,-,N/A,,Clear,170,2013-04-29 09:53:00
5:53 AM,54.0,48.9,83,29.76,10.0,South,11.5,-,N/A,,Clear,170,2013-04-29 10:53:00
6:53 AM,54.0,48.9,83,29.76,10.0,South,5.8,-,N/A,,Clear,170,2013-04-29 11:53:00
7:53 AM,55.9,50.0,80,29.78,10.0,South,10.4,-,N/A,,Clear,180,2013-04-29 12:53:00
8:53 AM,61.0,53.1,75,29.75,10.0,SSW,11.5,-,N/A,,Clear,200,2013-04-29 13:53:00
9:53 AM,64.9,54.0,68,29.74,10.0,SSW,10.4,-,N/A,,Clear,200,2013-04-29 14:53:00
10:53 AM,69.1,55.0,61,29.75,10.0,West,9.2,-,N/A,,Clear,260,2013-04-29 15:53:00
11:53 AM,71.1,55.9,59,29.74,10.0,SW,9.2,-,N/A,,Clear,220,2013-04-29 16:53:00
12:53 PM,73.0,57.0,57,29.71,10.0,South,4.6,-,N/A,,Clear,170,2013-04-29 17:53:00
1:53 PM,75.9,57.0,52,29.68,10.0,South,10.4,-,N/A,,Clear,190,2013-04-29 18:53:00
2:53 PM,78.1,57.0,48,29.66,10.0,South,10.4,-,N/A,,Clear,190,2013-04-29 19:53:00
3:53 PM,79.0,57.9,48,29.63,10.0,SSW,13.8,-,N/A,,Clear,200,2013-04-29 20:53:00
4:53 PM,80.1,60.1,50,29.61,10.0,SSW,17.3,23.0,N/A,,Clear,200,2013-04-29 21:53:00
5:53 PM,79.0,61.0,54,29.60,10.0,South,12.7,-,N/A,,Clear,190,2013-04-29 22:53:00
6:53 PM,79.0,59.0,50,29.59,10.0,South,11.5,-,N/A,,Clear,190,2013-04-29 23:53:00
7:53 PM,75.9,60.1,58,29.60,10.0,South,11.5,-,N/A,,Clear,190,2013-04-30 00:53:00
8:53 PM,73.0,60.1,64,29.61,10.0,South,9.2,-,N/A,,Clear,180,2013-04-30 01:53:00
9:53 PM,72.0,60.1,66,29.60,10.0,South,12.7,-,N/A,,Clear,180,2013-04-30 02:53:00
10:53 PM,71.1,60.1,68,29.60,10.0,South,13.8,-,N/A,,Clear,180,2013-04-30 03:53:00
11:53 PM,71.1,59.0,66,29.59,10.0,South,12.7,-,N/A,,Clear,190,2013-04-30 04:53:00